sat.trackr.live / text

‹ back to catalog

STARLINK-35803

NORAD 66568 · 2025-268M

PAYLOAD ACTIVE UNKNOWN

§ Identity

Operator
Country
US
Launch date
2025-11-21
Launch site
AFETR
Launch vehicle
Mass (kg)
RCS (m²)

Purposes: comms

External: N2YO · Heavens-Above · Gunter

§ Orbital elements

Epoch: 2026-09-20T20:47:53.077920Z

Period
94.27 min
Inclination
43.0026°
Eccentricity
0.0001891
Mean motion
15.27588840 rev/d
Perigee alt
481.7 km
Apogee alt
484.3 km
Semi-major
6,861.2 km
B*
1.6400e-4
RAAN
324.4499°
Arg perigee
271.9604°
Mean anomaly
88.1031°
Rev number
4,781

§ Raw data

STARLINK-358031 66568U 25268M   26263.86658655  .00004254  00000+0  16400-3 0  99902 66568  43.0026 324.4499 0001891 271.9604  88.1031 15.27588840 47810

JSON: /api/v1/satellites/66568 · /tle

For live sub-satellite position, see the globe view (requires WebGL).

§ Visibility from observer

Set your observer location to see the next 7 days of passes ≥ 10°. The values pass through the URL so the page stays shareable.

No JS? Fill the form by hand. The geolocation button needs JavaScript.